Year,Month,Day,Hour,Minute,Value (Times are PST for windgust in km/hr)
2006,11,10,00,00,29.00
2006,11,10,00,01,24.20
2006,11,10,00,02,24.20
2006,11,10,00,03,32.20
2006,11,10,00,04,30.60
2006,11,10,00,05,37.00
2006,11,10,00,06,32.20
2006,11,10,00,07,27.40
2006,11,10,00,08,27.40
2006,11,10,00,09,32.20
2006,11,10,00,10,22.50
2006,11,10,00,11,20.90
2006,11,10,00,12,32.20
2006,11,10,00,13,22.50
2006,11,10,00,14,32.20
2006,11,10,00,15,30.60
2006,11,10,00,16,35.40
2006,11,10,00,17,30.60
2006,11,10,00,18,35.40
2006,11,10,00,19,29.00
2006,11,10,00,20,35.40
2006,11,10,00,21,38.60
2006,11,10,00,22,33.80
2006,11,10,00,23,32.20
2006,11,10,00,24,33.80
2006,11,10,00,25,37.00
2006,11,10,00,26,35.40
2006,11,10,00,27,40.20
2006,11,10,00,28,33.80
2006,11,10,00,29,41.80
2006,11,10,00,30,40.20
2006,11,10,00,31,33.80
2006,11,10,00,32,37.00
2006,11,10,00,33,43.50
2006,11,10,00,34,38.60
2006,11,10,00,35,25.70
2006,11,10,00,36,33.80
2006,11,10,00,37,32.20
2006,11,10,00,38,35.40
2006,11,10,00,39,25.70
2006,11,10,00,40,38.60
2006,11,10,00,41,27.40
2006,11,10,00,42,33.80
2006,11,10,00,43,41.80
2006,11,10,00,44,37.00
2006,11,10,00,45,40.20
2006,11,10,00,46,27.40
2006,11,10,00,47,37.00
2006,11,10,00,48,30.60
2006,11,10,00,49,33.80
2006,11,10,00,50,32.20
2006,11,10,00,51,40.20
2006,11,10,00,52,29.00
2006,11,10,00,53,35.40
2006,11,10,00,54,27.40
2006,11,10,00,55,38.60
2006,11,10,00,56,37.00
2006,11,10,00,57,32.20
2006,11,10,00,58,40.20
2006,11,10,00,59,40.20
2006,11,10,01,00,35.40
2006,11,10,01,01,38.60
2006,11,10,01,02,43.50
2006,11,10,01,03,33.80
2006,11,10,01,04,37.00
2006,11,10,01,05,43.50
2006,11,10,01,06,46.70
2006,11,10,01,07,33.80
2006,11,10,01,08,32.20
2006,11,10,01,09,38.60
2006,11,10,01,10,40.20
2006,11,10,01,11,46.70
2006,11,10,01,12,45.10
2006,11,10,01,13,38.60
2006,11,10,01,14,41.80
2006,11,10,01,15,35.40
2006,11,10,01,16,43.50
2006,11,10,01,17,40.20
2006,11,10,01,18,29.00
2006,11,10,01,19,43.50
2006,11,10,01,20,43.50
2006,11,10,01,21,35.40
2006,11,10,01,22,45.10
2006,11,10,01,23,43.50
2006,11,10,01,24,37.00
2006,11,10,01,25,41.80
2006,11,10,01,26,49.90
2006,11,10,01,27,43.50
2006,11,10,01,28,41.80
2006,11,10,01,29,41.80
2006,11,10,01,30,49.90
2006,11,10,01,31,48.30
2006,11,10,01,32,49.90
2006,11,10,01,33,48.30
2006,11,10,01,34,45.10
2006,11,10,01,35,45.10
2006,11,10,01,36,33.80
2006,11,10,01,37,48.30
2006,11,10,01,38,46.70
2006,11,10,01,39,53.10
2006,11,10,01,40,53.10
2006,11,10,01,41,35.40
2006,11,10,01,42,48.30
2006,11,10,01,43,48.30
2006,11,10,01,44,46.70
2006,11,10,01,45,51.50
2006,11,10,01,46,38.60
2006,11,10,01,47,45.10
2006,11,10,01,48,40.20
2006,11,10,01,49,38.60
2006,11,10,01,50,37.00
2006,11,10,01,51,49.90
2006,11,10,01,52,62.70
2006,11,10,01,53,53.10
2006,11,10,01,54,53.10
2006,11,10,01,55,51.50
2006,11,10,01,56,38.60
2006,11,10,01,57,53.10
2006,11,10,01,58,48.30
2006,11,10,01,59,38.60
2006,11,10,02,00,54.70
2006,11,10,02,01,37.00
2006,11,10,02,02,43.50
2006,11,10,02,03,53.10
2006,11,10,02,04,45.10
2006,11,10,02,05,59.50
2006,11,10,02,06,41.80
2006,11,10,02,07,45.10
2006,11,10,02,08,45.10
2006,11,10,02,09,57.90
2006,11,10,02,10,43.50
2006,11,10,02,11,40.20
2006,11,10,02,12,56.30
2006,11,10,02,13,40.20
2006,11,10,02,14,38.60
2006,11,10,02,15,53.10
2006,11,10,02,16,61.20
2006,11,10,02,17,49.90
2006,11,10,02,18,61.20
2006,11,10,02,19,48.30
2006,11,10,02,20,54.70
2006,11,10,02,21,45.10
2006,11,10,02,22,49.90
2006,11,10,02,23,49.90
2006,11,10,02,24,40.20
2006,11,10,02,25,43.50
2006,11,10,02,26,43.50
2006,11,10,02,27,43.50
2006,11,10,02,28,38.60
2006,11,10,02,29,45.10
2006,11,10,02,30,49.90
2006,11,10,02,31,49.90
2006,11,10,02,32,37.00
2006,11,10,02,33,41.80
2006,11,10,02,34,41.80
2006,11,10,02,35,40.20
2006,11,10,02,36,53.10
2006,11,10,02,37,46.70
2006,11,10,02,38,51.50
2006,11,10,02,39,40.20
2006,11,10,02,40,38.60
2006,11,10,02,41,32.20
2006,11,10,02,42,35.40
2006,11,10,02,43,33.80
2006,11,10,02,44,43.50
2006,11,10,02,45,53.10
2006,11,10,02,46,46.70
2006,11,10,02,47,48.30
2006,11,10,02,48,48.30
2006,11,10,02,49,46.70
2006,11,10,02,50,33.80
2006,11,10,02,51,48.30
2006,11,10,02,52,45.10
2006,11,10,02,53,33.80
2006,11,10,02,54,56.30
2006,11,10,02,55,49.90
2006,11,10,02,56,43.50
2006,11,10,02,57,32.20
2006,11,10,02,58,40.20
2006,11,10,02,59,57.90
2006,11,10,03,00,40.20
2006,11,10,03,01,53.10
2006,11,10,03,02,53.10
2006,11,10,03,03,35.40
2006,11,10,03,04,37.00
2006,11,10,03,05,43.50
2006,11,10,03,06,32.20
2006,11,10,03,07,38.60
2006,11,10,03,08,32.20
2006,11,10,03,09,38.60
2006,11,10,03,10,38.60
2006,11,10,03,11,41.80
2006,11,10,03,12,37.00
2006,11,10,03,13,56.30
2006,11,10,03,14,48.30
2006,11,10,03,15,49.90
2006,11,10,03,16,41.80
2006,11,10,03,17,38.60
2006,11,10,03,18,30.60
2006,11,10,03,19,32.20
2006,11,10,03,20,45.10
2006,11,10,03,21,35.40
2006,11,10,03,22,38.60
2006,11,10,03,23,41.80
2006,11,10,03,24,38.60
2006,11,10,03,25,29.00
2006,11,10,03,26,45.10
2006,11,10,03,27,45.10
2006,11,10,03,28,53.10
2006,11,10,03,29,43.50
2006,11,10,03,30,53.10
2006,11,10,03,31,35.40
2006,11,10,03,32,45.10
2006,11,10,03,33,45.10
2006,11,10,03,34,51.50
2006,11,10,03,35,43.50
2006,11,10,03,36,48.30
2006,11,10,03,37,38.60
2006,11,10,03,38,35.40
2006,11,10,03,39,57.90
2006,11,10,03,40,32.20
2006,11,10,03,41,37.00
2006,11,10,03,42,40.20
2006,11,10,03,43,53.10
2006,11,10,03,44,41.80
2006,11,10,03,45,46.70
2006,11,10,03,46,41.80
2006,11,10,03,47,40.20
2006,11,10,03,48,51.50
2006,11,10,03,49,56.30
2006,11,10,03,50,59.50
2006,11,10,03,51,46.70
2006,11,10,03,52,54.70
2006,11,10,03,53,49.90
2006,11,10,03,54,48.30
2006,11,10,03,55,48.30
2006,11,10,03,56,41.80
2006,11,10,03,57,53.10
2006,11,10,03,58,64.40
2006,11,10,03,59,54.70
2006,11,10,04,00,45.10
2006,11,10,04,01,61.20
2006,11,10,04,02,41.80
2006,11,10,04,03,48.30
2006,11,10,04,04,56.30
2006,11,10,04,05,53.10
2006,11,10,04,06,54.70
2006,11,10,04,07,61.20
2006,11,10,04,08,57.90
2006,11,10,04,09,62.70
2006,11,10,04,10,62.70
2006,11,10,04,11,56.30
2006,11,10,04,12,54.70
2006,11,10,04,13,56.30
2006,11,10,04,14,40.20
2006,11,10,04,15,43.50
2006,11,10,04,16,38.60
2006,11,10,04,17,59.50
2006,11,10,04,18,53.10
2006,11,10,04,19,48.30
2006,11,10,04,20,56.30
2006,11,10,04,21,54.70
2006,11,10,04,22,57.90
2006,11,10,04,23,53.10
2006,11,10,04,24,51.50
2006,11,10,04,25,51.50
2006,11,10,04,26,57.90
2006,11,10,04,27,51.50
2006,11,10,04,28,53.10
2006,11,10,04,29,64.40
2006,11,10,04,30,53.10
2006,11,10,04,31,43.50
2006,11,10,04,32,49.90
2006,11,10,04,33,66.00
2006,11,10,04,34,59.50
2006,11,10,04,35,51.50
2006,11,10,04,36,46.70
2006,11,10,04,37,48.30
2006,11,10,04,38,49.90
2006,11,10,04,39,74.00
2006,11,10,04,40,54.70
2006,11,10,04,41,53.10
2006,11,10,04,42,48.30
2006,11,10,04,43,59.50
2006,11,10,04,44,62.70
2006,11,10,04,45,48.30
2006,11,10,04,46,54.70
2006,11,10,04,47,48.30
2006,11,10,04,48,54.70
2006,11,10,04,49,72.40
2006,11,10,04,50,53.10
2006,11,10,04,51,41.80
2006,11,10,04,52,59.50
2006,11,10,04,53,59.50
2006,11,10,04,54,57.90
2006,11,10,04,55,51.50
2006,11,10,04,56,53.10
2006,11,10,04,57,43.50
2006,11,10,04,58,54.70
2006,11,10,04,59,49.90
2006,11,10,05,00,48.30
2006,11,10,05,01,57.90
2006,11,10,05,02,48.30
2006,11,10,05,03,46.70
2006,11,10,05,04,61.20
2006,11,10,05,05,61.20
2006,11,10,05,06,53.10
2006,11,10,05,07,48.30
2006,11,10,05,08,41.80
2006,11,10,05,09,35.40
2006,11,10,05,10,40.20
2006,11,10,05,11,56.30
2006,11,10,05,12,56.30
2006,11,10,05,13,49.90
2006,11,10,05,14,48.30
2006,11,10,05,15,53.10
2006,11,10,05,16,59.50
2006,11,10,05,17,67.60
2006,11,10,05,18,51.50
2006,11,10,05,19,56.30
2006,11,10,05,20,61.20
2006,11,10,05,21,57.90
2006,11,10,05,22,51.50
2006,11,10,05,23,48.30
2006,11,10,05,24,66.00
2006,11,10,05,25,57.90
2006,11,10,05,26,40.20
2006,11,10,05,27,56.30
2006,11,10,05,28,64.40
2006,11,10,05,29,54.70
2006,11,10,05,30,67.60
2006,11,10,05,31,54.70
2006,11,10,05,32,70.80
2006,11,10,05,33,57.90
2006,11,10,05,34,53.10
2006,11,10,05,35,62.70
2006,11,10,05,36,45.10
2006,11,10,05,37,54.70
2006,11,10,05,38,46.70
2006,11,10,05,39,64.40
2006,11,10,05,40,62.70
2006,11,10,05,41,64.40
2006,11,10,05,42,66.00
2006,11,10,05,43,53.10
2006,11,10,05,44,53.10
2006,11,10,05,45,56.30
2006,11,10,05,46,72.40
2006,11,10,05,47,56.30
2006,11,10,05,48,56.30
2006,11,10,05,49,67.60
2006,11,10,05,50,64.40
2006,11,10,05,51,62.70
2006,11,10,05,52,61.20
2006,11,10,05,53,66.00
2006,11,10,05,54,64.40
2006,11,10,05,55,74.00
2006,11,10,05,56,57.90
2006,11,10,05,57,61.20
2006,11,10,05,58,64.40
2006,11,10,05,59,67.60
2006,11,10,06,00,61.20
2006,11,10,06,01,64.40
2006,11,10,06,02,57.90
2006,11,10,06,03,75.60
2006,11,10,06,04,53.10
2006,11,10,06,05,57.90
2006,11,10,06,06,74.00
2006,11,10,06,07,61.20
2006,11,10,06,08,59.50
2006,11,10,06,09,53.10
2006,11,10,06,10,56.30
2006,11,10,06,11,62.70
2006,11,10,06,12,56.30
2006,11,10,06,13,64.40
2006,11,10,06,14,74.00
2006,11,10,06,15,70.80
2006,11,10,06,16,64.40
2006,11,10,06,17,64.40
2006,11,10,06,18,57.90
2006,11,10,06,19,67.60
2006,11,10,06,20,70.80
2006,11,10,06,21,67.60
2006,11,10,06,22,62.70
2006,11,10,06,23,53.10
2006,11,10,06,24,72.40
2006,11,10,06,25,57.90
2006,11,10,06,26,59.50
2006,11,10,06,27,56.30
2006,11,10,06,28,61.20
2006,11,10,06,29,64.40
2006,11,10,06,30,61.20
2006,11,10,06,31,54.70
2006,11,10,06,32,56.30
2006,11,10,06,33,57.90
2006,11,10,06,34,61.20
2006,11,10,06,35,64.40
2006,11,10,06,36,56.30
2006,11,10,06,37,75.60
2006,11,10,06,38,64.40
2006,11,10,06,39,75.60
2006,11,10,06,40,51.50
2006,11,10,06,41,56.30
2006,11,10,06,42,64.40
2006,11,10,06,43,66.00
2006,11,10,06,44,53.10
2006,11,10,06,45,74.00
2006,11,10,06,46,64.40
2006,11,10,06,47,57.90
2006,11,10,06,48,69.20
2006,11,10,06,49,69.20
2006,11,10,06,50,49.90
2006,11,10,06,51,57.90
2006,11,10,06,52,62.70
2006,11,10,06,53,59.50
2006,11,10,06,54,64.40
2006,11,10,06,55,64.40
2006,11,10,06,56,66.00
2006,11,10,06,57,48.30
2006,11,10,06,58,64.40
2006,11,10,06,59,64.40
2006,11,10,07,00,61.20
2006,11,10,07,01,66.00
2006,11,10,07,02,61.20
2006,11,10,07,03,61.20
2006,11,10,07,04,64.40
2006,11,10,07,05,69.20
2006,11,10,07,06,56.30
2006,11,10,07,07,56.30
2006,11,10,07,08,62.70
2006,11,10,07,09,56.30
2006,11,10,07,10,53.10
2006,11,10,07,11,57.90
2006,11,10,07,12,59.50
2006,11,10,07,13,49.90
2006,11,10,07,14,70.80
2006,11,10,07,15,59.50
2006,11,10,07,16,61.20
2006,11,10,07,17,66.00
2006,11,10,07,18,75.60
2006,11,10,07,19,56.30
2006,11,10,07,20,56.30
2006,11,10,07,21,56.30
2006,11,10,07,22,70.80
2006,11,10,07,23,56.30
2006,11,10,07,24,72.40
2006,11,10,07,25,53.10
2006,11,10,07,26,59.50
2006,11,10,07,27,59.50
2006,11,10,07,28,80.50
2006,11,10,07,29,59.50
2006,11,10,07,30,46.70
2006,11,10,07,31,64.40
2006,11,10,07,32,53.10
2006,11,10,07,33,74.00
2006,11,10,07,34,54.70
2006,11,10,07,35,57.90
2006,11,10,07,36,54.70
2006,11,10,07,37,45.10
2006,11,10,07,38,61.20
2006,11,10,07,39,61.20
2006,11,10,07,40,59.50
2006,11,10,07,41,51.50
2006,11,10,07,42,59.50
2006,11,10,07,43,59.50
2006,11,10,07,44,56.30
2006,11,10,07,45,53.10
2006,11,10,07,46,46.70
2006,11,10,07,47,57.90
2006,11,10,07,48,57.90
2006,11,10,07,49,51.50
2006,11,10,07,50,64.40
2006,11,10,07,51,57.90
2006,11,10,07,52,56.30
2006,11,10,07,53,53.10
2006,11,10,07,54,51.50
2006,11,10,07,55,46.70
2006,11,10,07,56,49.90
2006,11,10,07,57,49.90
2006,11,10,07,58,41.80
2006,11,10,07,59,38.60
2006,11,10,08,00,51.50
2006,11,10,08,01,53.10
2006,11,10,08,02,46.70
2006,11,10,08,03,43.50
2006,11,10,08,04,51.50
2006,11,10,08,05,43.50
2006,11,10,08,06,48.30
2006,11,10,08,07,46.70
2006,11,10,08,08,53.10
2006,11,10,08,09,46.70
2006,11,10,08,10,54.70
2006,11,10,08,11,49.90
2006,11,10,08,12,40.20
2006,11,10,08,13,32.20
2006,11,10,08,14,56.30
2006,11,10,08,15,57.90
2006,11,10,08,16,53.10
2006,11,10,08,17,38.60
2006,11,10,08,18,37.00
2006,11,10,08,19,43.50
2006,11,10,08,20,48.30
2006,11,10,08,21,43.50
2006,11,10,08,22,46.70
2006,11,10,08,23,53.10
2006,11,10,08,24,33.80
2006,11,10,08,25,43.50
2006,11,10,08,26,37.00
2006,11,10,08,27,49.90
2006,11,10,08,28,30.60
2006,11,10,08,29,25.70
2006,11,10,08,30,51.50
2006,11,10,08,31,48.30
2006,11,10,08,32,49.90
2006,11,10,08,33,45.10
2006,11,10,08,34,30.60
2006,11,10,08,35,48.30
2006,11,10,08,36,41.80
2006,11,10,08,37,32.20
2006,11,10,08,38,33.80
2006,11,10,08,39,53.10
2006,11,10,08,40,53.10
2006,11,10,08,41,40.20
2006,11,10,08,42,40.20
2006,11,10,08,43,33.80
2006,11,10,08,44,22.50
2006,11,10,08,45,45.10
2006,11,10,08,46,46.70
2006,11,10,08,47,41.80
2006,11,10,08,48,33.80
2006,11,10,08,49,46.70
2006,11,10,08,50,46.70
2006,11,10,08,51,54.70
2006,11,10,08,52,37.00
2006,11,10,08,53,46.70
2006,11,10,08,54,51.50
2006,11,10,08,55,45.10
2006,11,10,08,56,40.20
2006,11,10,08,57,27.40
2006,11,10,08,58,35.40
2006,11,10,08,59,37.00
2006,11,10,09,00,46.70
2006,11,10,09,01,45.10
2006,11,10,09,02,48.30
2006,11,10,09,03,40.20
2006,11,10,09,04,30.60
2006,11,10,09,05,29.00
2006,11,10,09,06,46.70
2006,11,10,09,07,46.70
2006,11,10,09,08,45.10
2006,11,10,09,09,43.50
2006,11,10,09,10,48.30
2006,11,10,09,11,41.80
2006,11,10,09,12,40.20
2006,11,10,09,13,37.00
2006,11,10,09,14,37.00
2006,11,10,09,15,49.90
2006,11,10,09,16,27.40
2006,11,10,09,17,29.00
2006,11,10,09,18,38.60
2006,11,10,09,19,33.80
2006,11,10,09,20,24.20
2006,11,10,09,21,32.20
2006,11,10,09,22,46.70
2006,11,10,09,23,33.80
2006,11,10,09,24,32.20
2006,11,10,09,25,20.90
2006,11,10,09,26,22.50
2006,11,10,09,27,43.50
2006,11,10,09,28,37.00
2006,11,10,09,29,41.80
2006,11,10,09,30,29.00
2006,11,10,09,31,30.60
2006,11,10,09,32,43.50
2006,11,10,09,33,38.60
2006,11,10,09,34,20.90
2006,11,10,09,35,33.80
2006,11,10,09,36,32.20
2006,11,10,09,37,38.60
2006,11,10,09,38,33.80
2006,11,10,09,39,30.60
2006,11,10,09,40,30.60
2006,11,10,09,41,37.00
2006,11,10,09,42,38.60
2006,11,10,09,43,45.10
2006,11,10,09,44,45.10
2006,11,10,09,45,45.10
2006,11,10,09,46,33.80
2006,11,10,09,47,40.20
2006,11,10,09,48,32.20
2006,11,10,09,49,41.80
2006,11,10,09,50,30.60
2006,11,10,09,51,25.70
2006,11,10,09,52,32.20
2006,11,10,09,53,35.40
2006,11,10,09,54,32.20
2006,11,10,09,55,32.20
2006,11,10,09,56,29.00
2006,11,10,09,57,30.60
2006,11,10,09,58,43.50
2006,11,10,09,59,32.20
2006,11,10,10,00,19.30
2006,11,10,10,01,24.20
2006,11,10,10,02,27.40
2006,11,10,10,03,25.70
2006,11,10,10,04,30.60
2006,11,10,10,05,29.00
2006,11,10,10,06,35.40
2006,11,10,10,07,32.20
2006,11,10,10,08,27.40
2006,11,10,10,09,27.40
2006,11,10,10,10,19.30
2006,11,10,10,11,29.00
2006,11,10,10,12,27.40
2006,11,10,10,13,27.40
2006,11,10,10,14,29.00
2006,11,10,10,15,30.60
2006,11,10,10,16,30.60
2006,11,10,10,17,30.60
2006,11,10,10,18,30.60
2006,11,10,10,19,29.00
2006,11,10,10,20,27.40
2006,11,10,10,21,29.00
2006,11,10,10,22,24.20
2006,11,10,10,23,22.50
2006,11,10,10,24,17.70
2006,11,10,10,25,37.00
2006,11,10,10,26,30.60
2006,11,10,10,27,22.50
2006,11,10,10,28,33.80
2006,11,10,10,29,24.20
2006,11,10,10,30,25.70
2006,11,10,10,31,27.40
2006,11,10,10,32,27.40
2006,11,10,10,33,25.70
2006,11,10,10,34,24.20
2006,11,10,10,35,30.60
2006,11,10,10,36,29.00
2006,11,10,10,37,25.70
2006,11,10,10,38,22.50
2006,11,10,10,39,17.70
2006,11,10,10,40,17.70
2006,11,10,10,41,20.90
2006,11,10,10,42,19.30
2006,11,10,10,43,12.90
2006,11,10,10,44,17.70
2006,11,10,10,45,25.70
2006,11,10,10,46,30.60
2006,11,10,10,47,24.20
2006,11,10,10,48,22.50
2006,11,10,10,49,20.90
2006,11,10,10,50,19.30
2006,11,10,10,51,19.30
2006,11,10,10,52,20.90
2006,11,10,10,53,24.20
2006,11,10,10,54,20.90
2006,11,10,10,55,22.50
2006,11,10,10,56,20.90
2006,11,10,10,57,16.10
2006,11,10,10,58,20.90
2006,11,10,10,59,24.20
2006,11,10,11,00,14.50
2006,11,10,11,01,17.70
2006,11,10,11,02,20.90
2006,11,10,11,03,20.90
2006,11,10,11,04,19.30
2006,11,10,11,05,19.30
2006,11,10,11,06,11.30
2006,11,10,11,07,17.70
2006,11,10,11,08,17.70
2006,11,10,11,09,19.30
2006,11,10,11,10,12.90
2006,11,10,11,11,17.70
2006,11,10,11,12,9.60
2006,11,10,11,13,16.10
2006,11,10,11,14,17.70
2006,11,10,11,15,19.30
2006,11,10,11,16,17.70
2006,11,10,11,17,14.50
2006,11,10,11,18,16.10
2006,11,10,11,19,8.10
2006,11,10,11,20,16.10
2006,11,10,11,21,16.10
2006,11,10,11,22,14.50
2006,11,10,11,23,11.30
2006,11,10,11,24,17.70
2006,11,10,11,25,14.50
2006,11,10,11,26,17.70
2006,11,10,11,27,16.10
2006,11,10,11,28,14.50
2006,11,10,11,29,17.70
2006,11,10,11,30,17.70
2006,11,10,11,31,11.30
2006,11,10,11,32,14.50
2006,11,10,11,33,11.30
2006,11,10,11,34,11.30
2006,11,10,11,35,14.50
2006,11,10,11,36,11.30
2006,11,10,11,37,8.10
2006,11,10,11,38,6.40
2006,11,10,11,39,4.80
2006,11,10,11,40,4.80
2006,11,10,11,41,9.60
2006,11,10,11,42,6.40
2006,11,10,11,43,8.10
2006,11,10,11,44,3.20
2006,11,10,11,45,4.80
2006,11,10,11,46,6.40
2006,11,10,11,47,4.80
2006,11,10,11,48,6.40
2006,11,10,11,49,8.10
2006,11,10,11,50,4.80
2006,11,10,11,51,8.10
2006,11,10,11,52,4.80
2006,11,10,11,53,4.80
2006,11,10,11,54,4.80
2006,11,10,11,55,6.40
2006,11,10,11,56,4.80
2006,11,10,11,57,4.80
2006,11,10,11,58,4.80
2006,11,10,11,59,4.80
2006,11,10,12,00,4.80
2006,11,10,12,01,4.80
2006,11,10,12,02,3.20
2006,11,10,12,03,3.20
2006,11,10,12,04,6.40
2006,11,10,12,05,1.60
2006,11,10,12,06,6.40
2006,11,10,12,07,4.80
2006,11,10,12,08,6.40
2006,11,10,12,09,4.80
2006,11,10,12,10,4.80
2006,11,10,12,11,8.10
2006,11,10,12,12,8.10
2006,11,10,12,13,6.40
2006,11,10,12,14,6.40
2006,11,10,12,15,4.80
2006,11,10,12,16,4.80
2006,11,10,12,17,3.20
2006,11,10,12,18,1.60
2006,11,10,12,19,4.80
2006,11,10,12,20,3.20
2006,11,10,12,21,3.20
2006,11,10,12,22,3.20
2006,11,10,12,23,4.80
2006,11,10,12,24,4.80
2006,11,10,12,25,3.20
2006,11,10,12,26,3.20
2006,11,10,12,27,6.40
2006,11,10,12,28,8.10
2006,11,10,12,29,6.40
2006,11,10,12,30,4.80
2006,11,10,12,31,4.80
2006,11,10,12,32,1.60
2006,11,10,12,33,4.80
2006,11,10,12,34,4.80
2006,11,10,12,35,4.80
2006,11,10,12,36,3.20
2006,11,10,12,37,3.20
2006,11,10,12,38,1.60
2006,11,10,12,39,4.80
2006,11,10,12,40,4.80
2006,11,10,12,41,6.40
2006,11,10,12,42,0.00
2006,11,10,12,43,1.60
2006,11,10,12,44,0.00
2006,11,10,12,45,4.80
2006,11,10,12,46,4.80
2006,11,10,12,47,3.20
2006,11,10,12,48,4.80
2006,11,10,12,49,3.20
2006,11,10,12,50,4.80
2006,11,10,12,51,3.20
2006,11,10,12,52,3.20
2006,11,10,12,53,6.40
2006,11,10,12,54,4.80
2006,11,10,12,55,4.80
2006,11,10,12,56,4.80
2006,11,10,12,57,3.20
2006,11,10,12,58,4.80
2006,11,10,12,59,4.80
2006,11,10,13,00,4.80
2006,11,10,13,01,4.80
2006,11,10,13,02,4.80
2006,11,10,13,03,3.20
2006,11,10,13,04,3.20
2006,11,10,13,05,4.80
2006,11,10,13,06,1.60
2006,11,10,13,07,3.20
2006,11,10,13,08,3.20
2006,11,10,13,09,3.20
2006,11,10,13,10,1.60
2006,11,10,13,11,1.60
2006,11,10,13,12,4.80
2006,11,10,13,13,4.80
2006,11,10,13,14,1.60
2006,11,10,13,15,4.80
2006,11,10,13,16,3.20
2006,11,10,13,17,4.80
2006,11,10,13,18,4.80
2006,11,10,13,19,4.80
2006,11,10,13,20,4.80
2006,11,10,13,21,6.40
2006,11,10,13,22,4.80
2006,11,10,13,23,3.20
2006,11,10,13,24,3.20
2006,11,10,13,25,3.20
2006,11,10,13,26,4.80
2006,11,10,13,27,6.40
2006,11,10,13,28,4.80
2006,11,10,13,29,3.20
2006,11,10,13,30,3.20
2006,11,10,13,31,0.00
2006,11,10,13,32,3.20
2006,11,10,13,33,3.20
2006,11,10,13,34,3.20
2006,11,10,13,35,3.20
2006,11,10,13,36,4.80
2006,11,10,13,37,4.80
2006,11,10,13,38,3.20
2006,11,10,13,39,8.10
2006,11,10,13,40,8.10
2006,11,10,13,41,4.80
2006,11,10,13,42,3.20
2006,11,10,13,43,4.80
2006,11,10,13,44,6.40
2006,11,10,13,45,6.40
2006,11,10,13,46,4.80
2006,11,10,13,47,6.40
2006,11,10,13,48,3.20
2006,11,10,13,49,1.60
2006,11,10,13,50,6.40
2006,11,10,13,51,4.80
2006,11,10,13,52,3.20
2006,11,10,13,53,4.80
2006,11,10,13,54,4.80
2006,11,10,13,55,1.60
2006,11,10,13,56,6.40
2006,11,10,13,57,8.10
2006,11,10,13,58,9.60
2006,11,10,13,59,4.80
2006,11,10,14,00,6.40
2006,11,10,14,01,8.10
2006,11,10,14,02,4.80
2006,11,10,14,03,6.40
2006,11,10,14,04,4.80
2006,11,10,14,05,3.20
2006,11,10,14,06,3.20
2006,11,10,14,07,6.40
2006,11,10,14,08,4.80
2006,11,10,14,09,6.40
2006,11,10,14,10,6.40
2006,11,10,14,11,4.80
2006,11,10,14,12,4.80
2006,11,10,14,13,6.40
2006,11,10,14,14,8.10
2006,11,10,14,15,3.20
2006,11,10,14,16,4.80
2006,11,10,14,17,6.40
2006,11,10,14,18,6.40
2006,11,10,14,19,9.60
2006,11,10,14,20,6.40
2006,11,10,14,21,6.40
2006,11,10,14,22,6.40
2006,11,10,14,23,6.40
2006,11,10,14,24,8.10
2006,11,10,14,25,8.10
2006,11,10,14,26,8.10
2006,11,10,14,27,6.40
2006,11,10,14,28,6.40
2006,11,10,14,29,6.40
2006,11,10,14,30,8.10
2006,11,10,14,31,8.10
2006,11,10,14,32,8.10
2006,11,10,14,33,11.30
2006,11,10,14,34,8.10
2006,11,10,14,35,9.60
2006,11,10,14,36,8.10
2006,11,10,14,37,9.60
2006,11,10,14,38,8.10
2006,11,10,14,39,9.60
2006,11,10,14,40,9.60
2006,11,10,14,41,8.10
2006,11,10,14,42,8.10
2006,11,10,14,43,4.80
2006,11,10,14,44,3.20
2006,11,10,14,45,4.80
2006,11,10,14,46,3.20
2006,11,10,14,47,4.80
2006,11,10,14,48,8.10
2006,11,10,14,49,8.10
2006,11,10,14,50,4.80
2006,11,10,14,51,8.10
2006,11,10,14,52,8.10
2006,11,10,14,53,4.80
2006,11,10,14,54,4.80
2006,11,10,14,55,3.20
2006,11,10,14,56,1.60
2006,11,10,14,57,3.20
2006,11,10,14,58,4.80
2006,11,10,14,59,8.10
2006,11,10,15,00,4.80
2006,11,10,15,01,3.20
2006,11,10,15,02,0.00
2006,11,10,15,03,1.60
2006,11,10,15,04,4.80
2006,11,10,15,05,4.80
2006,11,10,15,06,3.20
2006,11,10,15,07,1.60
2006,11,10,15,08,1.60
2006,11,10,15,09,4.80
2006,11,10,15,10,4.80
2006,11,10,15,11,3.20
2006,11,10,15,12,3.20
2006,11,10,15,13,4.80
2006,11,10,15,14,4.80
2006,11,10,15,15,6.40
2006,11,10,15,16,4.80
2006,11,10,15,17,6.40
2006,11,10,15,18,6.40
2006,11,10,15,19,4.80
2006,11,10,15,20,3.20
2006,11,10,15,21,1.60
2006,11,10,15,22,4.80
2006,11,10,15,23,4.80
2006,11,10,15,24,3.20
2006,11,10,15,25,4.80
2006,11,10,15,26,4.80
2006,11,10,15,27,4.80
2006,11,10,15,28,6.40
2006,11,10,15,29,4.80
2006,11,10,15,30,8.10
2006,11,10,15,31,8.10
2006,11,10,15,32,6.40
2006,11,10,15,33,8.10
2006,11,10,15,34,6.40
2006,11,10,15,35,4.80
2006,11,10,15,36,6.40
2006,11,10,15,37,8.10
2006,11,10,15,38,4.80
2006,11,10,15,39,4.80
2006,11,10,15,40,4.80
2006,11,10,15,41,8.10
2006,11,10,15,42,8.10
2006,11,10,15,43,4.80
2006,11,10,15,44,3.20
2006,11,10,15,45,4.80
2006,11,10,15,46,4.80
2006,11,10,15,47,6.40
2006,11,10,15,48,6.40
2006,11,10,15,49,3.20
2006,11,10,15,50,4.80
2006,11,10,15,51,3.20
2006,11,10,15,52,1.60
2006,11,10,15,53,3.20
2006,11,10,15,54,4.80
2006,11,10,15,55,8.10
2006,11,10,15,56,6.40
2006,11,10,15,57,4.80
2006,11,10,15,58,3.20
2006,11,10,15,59,3.20
2006,11,10,16,00,3.20
2006,11,10,16,01,1.60
2006,11,10,16,02,3.20
2006,11,10,16,03,3.20
2006,11,10,16,04,4.80
2006,11,10,16,05,3.20
2006,11,10,16,06,4.80
2006,11,10,16,07,6.40
2006,11,10,16,08,8.10
2006,11,10,16,09,8.10
2006,11,10,16,10,8.10
2006,11,10,16,11,8.10
2006,11,10,16,12,4.80
2006,11,10,16,13,11.30
2006,11,10,16,14,8.10
2006,11,10,16,15,8.10
2006,11,10,16,16,8.10
2006,11,10,16,17,8.10
2006,11,10,16,18,4.80
2006,11,10,16,19,8.10
2006,11,10,16,20,8.10
2006,11,10,16,21,6.40
2006,11,10,16,22,8.10
2006,11,10,16,23,4.80
2006,11,10,16,24,4.80
2006,11,10,16,25,4.80
2006,11,10,16,26,6.40
2006,11,10,16,27,4.80
2006,11,10,16,28,4.80
2006,11,10,16,29,6.40
2006,11,10,16,30,8.10
2006,11,10,16,31,3.20
2006,11,10,16,32,3.20
2006,11,10,16,33,3.20
2006,11,10,16,34,4.80
2006,11,10,16,35,4.80
2006,11,10,16,36,4.80
2006,11,10,16,37,8.10
2006,11,10,16,38,4.80
2006,11,10,16,39,4.80
2006,11,10,16,40,4.80
2006,11,10,16,41,4.80
2006,11,10,16,42,4.80
2006,11,10,16,43,8.10
2006,11,10,16,44,6.40
2006,11,10,16,45,4.80
2006,11,10,16,46,3.20
2006,11,10,16,47,6.40
2006,11,10,16,48,8.10
2006,11,10,16,49,8.10
2006,11,10,16,50,8.10
2006,11,10,16,51,6.40
2006,11,10,16,52,8.10
2006,11,10,16,53,6.40
2006,11,10,16,54,6.40
2006,11,10,16,55,8.10
2006,11,10,16,56,9.60
2006,11,10,16,57,9.60
2006,11,10,16,58,9.60
2006,11,10,16,59,8.10
2006,11,10,17,00,8.10
2006,11,10,17,01,4.80
2006,11,10,17,02,8.10
2006,11,10,17,03,4.80
2006,11,10,17,04,3.20
2006,11,10,17,05,3.20
2006,11,10,17,06,6.40
2006,11,10,17,07,4.80
2006,11,10,17,08,1.60
2006,11,10,17,09,3.20
2006,11,10,17,10,8.10
2006,11,10,17,11,9.60
2006,11,10,17,12,11.30
2006,11,10,17,13,9.60
2006,11,10,17,14,9.60
2006,11,10,17,15,8.10
2006,11,10,17,16,6.40
2006,11,10,17,17,6.40
2006,11,10,17,18,9.60
2006,11,10,17,19,9.60
2006,11,10,17,20,6.40
2006,11,10,17,21,4.80
2006,11,10,17,22,4.80
2006,11,10,17,23,6.40
2006,11,10,17,24,6.40
2006,11,10,17,25,4.80
2006,11,10,17,26,6.40
2006,11,10,17,27,4.80
2006,11,10,17,28,6.40
2006,11,10,17,29,8.10
2006,11,10,17,30,3.20
2006,11,10,17,31,8.10
2006,11,10,17,32,6.40
2006,11,10,17,33,8.10
2006,11,10,17,34,9.60